Simultaneous Nadir Overpasses (SNOs) Predictions

Prediction of SNOs between FY3D and AQUA Satellite Orbit:

Table of predicted SNOs for the next 14.0 days since TLE Epoch: 3/9/2024
Index Date (FY3D) Time (FY3D) Lat,Lon (FY3D) SZA (FY3D ) Date (AQUA) Time (AQUA) Lat,Lon (AQUA) SZA (AQUA ) Distance(km) Time Diff (sec)
1 03/10/2024 18:28:56 79.26,-116.46 83.66 03/10/2024 18:29:09 79.26,-116.43 83.66 0.55 13
2 03/10/2024 19:19:31 -78.92, 53.43 96.85 03/10/2024 19:18:23 -78.93, 53.32 96.82 2.57 68
3 03/13/2024 06:32:50 -79.46,-118.99 97.04 03/13/2024 06:33:56 -79.45,-118.86 97.08 2.93 66
4 03/13/2024 07:23:25 79.10, 51.22 82.41 03/13/2024 07:23:10 79.11, 51.09 82.43 3.01 15
5 03/15/2024 19:27:20 -79.34, 48.41 98.24 03/15/2024 19:27:57 -79.34, 48.42 98.25 0.22 37
6 03/15/2024 20:17:57 79.04,-141.94 81.31 03/15/2024 20:17:12 79.04,-141.95 81.32 0.35 45
7 03/18/2024 08:21:49 -79.19,-143.99 99.48 03/18/2024 08:21:56 -79.20,-144.11 99.46 2.80 7
8 03/18/2024 09:11:08 75.64, 40.87 76.28 03/18/2024 09:09:55 75.43, 39.55 76.09 43.54 73
9 03/20/2024 20:25:44 79.41,-146.66 79.85 03/20/2024 20:26:40 79.40,-146.60 79.82 1.30 56



Historial Predications of SNOs between FY3D and AQUA
